Location: Newark
(35.2672°N, 80.7344°W)
Time: 06:39:19
(UTC+00:00)

SR - Pass Details

Date: 28 January 2020
Orbit: 576 x 880 km, 66.7° (Epoch: 27 February)

Event Time Altitude Azimuth Distance (km) Brightness Sun altitude
Exits shadow 10:19:04 - 354° (N) 3,183 ? -25.8°
Reaches altitude 10° 10:22:46 10° 22° (NNE) 2,368 ? -25.1°
Maximum altitude 10:24:40 12° 43° (NE) 2,212 ? -24.7°
Drops below altitude 10° 10:26:31 10° 64° (ENE) 2,295 ? -24.3°
Sets 10:30:34 0° 96° (E) 3,130 ? -23.5°
